TimeCDT,TemperatureF,Dew PointF,Humidity,Sea Level PressureIn,VisibilityMPH,Wind Direction,Wind SpeedMPH,Gust SpeedMPH,PrecipitationIn,Events,Conditions,WindDirDegrees,DateUTC
12:53 AM,37.9,27.0,65,30.08,10.0,West,8.1,-,N/A,,Clear,270,2012-10-06 05:53:00
1:53 AM,36.0,27.0,70,30.08,10.0,West,9.2,-,N/A,,Clear,270,2012-10-06 06:53:00
2:53 AM,36.0,27.0,70,30.07,10.0,West,8.1,-,N/A,,Clear,270,2012-10-06 07:53:00
3:53 AM,35.1,27.0,72,30.08,10.0,West,8.1,-,N/A,,Clear,260,2012-10-06 08:53:00
4:53 AM,35.1,27.0,72,30.08,10.0,West,9.2,-,N/A,,Clear,280,2012-10-06 09:53:00
5:53 AM,34.0,27.0,75,30.11,10.0,West,11.5,-,N/A,,Clear,270,2012-10-06 10:53:00
6:53 AM,34.0,26.1,73,30.12,10.0,West,9.2,-,N/A,,Clear,280,2012-10-06 11:53:00
7:53 AM,36.0,27.0,70,30.12,10.0,West,9.2,-,N/A,,Clear,280,2012-10-06 12:53:00
9:53 AM,44.1,30.0,58,30.14,10.0,West,10.4,-,N/A,,Clear,270,2012-10-06 14:53:00
10:53 AM,46.0,28.9,51,30.15,10.0,Variable,6.9,-,N/A,,Scattered Clouds,0,2012-10-06 15:53:00
11:53 AM,46.9,28.9,50,30.16,10.0,West,8.1,-,N/A,,Overcast,280,2012-10-06 16:53:00
12:53 PM,50.0,28.9,44,30.16,10.0,West,12.7,18.4,N/A,,Mostly Cloudy,270,2012-10-06 17:53:00
1:53 PM,48.9,28.0,44,30.14,10.0,West,8.1,-,N/A,,Mostly Cloudy,270,2012-10-06 18:53:00
2:53 PM,48.0,28.0,46,30.14,10.0,WNW,5.8,-,N/A,,Partly Cloudy,300,2012-10-06 19:53:00
3:53 PM,48.0,28.9,48,30.14,10.0,NW,5.8,-,N/A,,Overcast,320,2012-10-06 20:53:00
4:53 PM,46.9,30.0,52,30.15,10.0,North,5.8,-,N/A,,Overcast,360,2012-10-06 21:53:00
5:53 PM,46.0,32.0,58,30.16,10.0,Calm,Calm,-,N/A,,Overcast,0,2012-10-06 22:53:00
6:53 PM,46.0,28.9,51,30.17,10.0,West,5.8,-,N/A,,Overcast,280,2012-10-06 23:53:00
7:53 PM,45.0,28.9,53,30.17,10.0,West,5.8,-,N/A,,Overcast,280,2012-10-07 00:53:00
8:53 PM,45.0,28.9,53,30.17,10.0,WNW,8.1,-,N/A,,Overcast,290,2012-10-07 01:53:00
9:53 PM,45.0,28.0,52,30.17,10.0,WNW,6.9,-,N/A,,Overcast,290,2012-10-07 02:53:00
10:53 PM,44.1,28.9,55,30.17,10.0,West,6.9,-,N/A,,Overcast,280,2012-10-07 03:53:00
11:53 PM,43.0,28.9,58,30.17,10.0,West,8.1,-,N/A,,Overcast,270,2012-10-07 04:53:00